[[{"header":{"parameterUnit":"m.s-1","parameterCategory":1,"la1":30.2991,"la2":30.254,"lo1":-89.0895,"lo2":-89.0444,"dy":0.0017,"dx":0.0017,"nx":28,"ny":28,"refTime":"2024-06-05T09:00:00:Z","depth":0,"parameterNumber":2,"parameterNumberName":"U-component_of_WINDS"},"data":[0,0,0,0,0,0,0,0,0,0,0,0,0,0,0,0,0,0,0,0,0,0,0,0,0,0,0,0,0,0,0,0,0,0,0,0,0,0,0,0,0,0,0,0,0,0,0,0,0,0,0,0,0,0,0,0,0,0,3.4744,3.4745,0,3.4854,3.4856,3.4857,3.4848,3.4846,3.4845,3.4843,3.4962,3.4966,3.4971,0,0,0,0,0,0,0,0,0,0,0,0,0,3.453,3.4534,3.4743,3.4745,3.4746,3.4854,3.4856,3.4857,3.4848,3.4846,3.4844,3.4842,3.496,3.4966,3.4971,0,0,0,0,0,0,0,0,0,0,0,0,0,3.463,3.4535,3.4743,3.4755,3.4757,3.4854,3.4856,3.4858,3.4849,3.4846,3.4844,3.4841,3.4958,3.4965,3.4972,3.5066,0,0,3.4994,3.4997,0,0,0,0,0,0,0,0,3.4624,3.4638,3.4752,3.4754,3.4757,3.4835,3.4824,3.4928,3.4849,3.4814,3.4843,3.484,3.4922,3.4932,3.4958,3.5072,3.5077,3.4994,3.4999,3.5002,3.5004,0,0,0,0,0,0,0,3.4617,3.4633,3.4787,3.4753,3.4756,3.4756,3.4768,3.4844,3.4881,3.4817,3.4816,3.4829,3.4923,3.4951,3.4961,3.5079,3.4994,3.5,3.5005,3.5008,3.5279,3.5282,0,0,0,0,0,0,3.4607,3.4627,3.4784,3.4791,3.4683,3.4762,3.4775,3.4812,3.488,3.4888,3.4831,3.4829,3.494,3.4953,3.4965,3.5082,3.5002,3.5008,3.5012,3.5276,3.528,3.5283,0,0,0,0,0,0,3.4603,3.4621,3.4779,3.4709,3.4729,3.4768,3.4811,3.4816,3.4844,3.4891,3.4898,3.4854,3.4939,3.4955,3.5042,3.5086,3.5012,3.5018,3.5272,3.5277,3.5281,3.5315,0,0,0,0,0,0,3.4596,3.462,3.4654,3.471,3.4733,3.4852,3.4813,3.482,3.4856,3.4853,3.4914,3.4921,3.4938,3.5031,3.5049,3.5094,3.5023,3.5269,3.5275,3.528,3.531,3.532,3.5329,0,0,0,0,0,3.4589,3.466,3.4656,3.4675,3.4777,3.4855,3.4868,3.4885,3.4859,3.4896,3.4926,3.4919,3.5078,3.504,3.506,3.5108,3.5266,3.5273,3.5279,3.5306,3.5318,3.5328,0,0,0,0,0,0,3.461,3.4667,3.4664,3.4754,3.48,3.4853,3.4899,3.4897,3.4952,3.4947,3.4967,3.4981,3.5068,3.5097,3.5054,3.5205,3.5169,3.518,3.5183,3.5195,3.5203,3.5195,3.5029,0,0,0,0,0,3.4625,3.4681,3.4729,3.4805,3.4828,3.486,3.4894,3.4903,3.4952,3.4971,3.5008,3.5057,3.5118,3.5158,3.5216,3.5314,3.5329,3.5358,3.5367,3.5374,3.5384,3.544,3.5454,3.5305,3.5304,3.5304,0,0,3.4657,3.4695,3.473,3.481,3.4846,3.4907,3.4876,3.4941,3.4987,3.4982,3.5066,3.5094,3.515,3.5244,3.5287,3.527,3.5428,3.5382,3.5388,3.5394,3.5448,3.5463,3.5475,3.5309,3.5308,3.5308,0,0,3.4746,3.478,3.4847,3.4884,3.4939,3.496,3.4976,3.5031,3.5049,3.5134,3.5132,3.5188,3.5292,3.5332,3.5367,3.5473,3.547,3.5492,3.554,3.5595,3.5607,3.5618,3.5658,3.5672,3.5501,3.5501,3.5501,0,3.4779,3.4868,3.4883,3.4949,3.4985,3.4982,3.5053,3.5088,3.516,3.5186,3.5166,3.5298,3.5336,3.544,3.5466,3.5493,3.5514,3.5485,3.5604,3.5615,3.5625,3.5663,3.5678,3.5504,3.5503,3.5503,3.5503,0,3.4908,3.497,3.5018,3.5087,3.5129,3.5196,3.5223,3.5264,3.527,3.5294,3.5382,3.5426,3.5495,3.552,3.5527,3.5626,3.5614,3.5599,3.5564,3.5641,3.5678,3.5693,3.5507,3.5506,3.5506,3.5505,0,0,3.5013,3.5089,3.5107,3.5139,3.52,3.5249,3.5318,3.5384,3.542,3.547,3.553,3.5618,3.5605,3.5644,3.5655,3.5703,3.5788,3.5683,3.5684,3.5702,3.5903,3.5915,3.5931,3.5785,3.5788,3.579,3.5898,0,3.5109,3.5229,3.5245,3.5352,3.5412,3.5411,3.5471,3.5516,3.5541,3.5596,3.5624,3.5688,3.5664,3.5688,3.5735,3.5767,3.5829,3.576,3.5844,3.5846,3.5831,3.595,3.5963,3.6062,3.5913,3.5915,3.5917,0,3.5238,3.5291,3.5404,3.5458,3.5484,3.5537,3.56,3.5652,3.5705,3.572,3.5764,3.577,3.5843,3.5804,3.5908,3.5861,3.5896,3.5917,3.5922,3.5931,3.5887,3.5964,3.6094,3.611,3.5939,3.5937,3.5936,0,3.5306,3.5405,3.5486,3.5513,3.5579,3.5617,3.5646,3.5696,3.5735,3.5791,3.5817,3.588,3.5916,3.5966,3.599,3.5959,3.6093,3.6056,3.611,3.6109,3.6138,3.6137,3.6277,3.6159,3.6159,3.6159,3.6158,0,3.5413,3.5482,3.5518,3.5567,3.5646,3.5665,3.5743,3.5772,3.5816,3.5873,3.5877,3.5931,3.5958,3.6017,3.6037,3.6121,3.6136,3.6152,3.6157,3.6152,3.6151,3.6177,3.6171,3.6163,3.6162,3.6161,3.616,0,3.5502,3.5528,3.5616,3.5671,3.5687,3.5743,3.579,3.584,3.5864,3.5937,3.5955,3.5994,3.6064,3.6093,3.6178,3.6191,3.6288,3.6287,3.627,3.6272,3.6325,3.632,3.6489,3.6513,3.6377,3.6378,3.6379,0,3.5569,3.5623,3.5683,3.5721,3.5751,3.5812,3.5852,3.5874,3.5916,3.598,3.6023,3.6092,3.6148,3.626,3.6298,3.6364,3.6365,3.642,3.6375,3.637,3.6368,3.6365,3.6372,3.6428,3.643,3.6431,3.6432,0,3.5686,3.5697,3.5753,3.5816,3.5863,3.5913,3.5962,3.5993,3.6023,3.607,3.6141,3.6185,3.6272,3.6342,3.641,3.6443,3.6444,3.6445,3.6462,3.6458,3.6447,3.6456,3.6294,3.6441,3.644,3.644,3.6439,3.6439,3.5768,3.5816,3.5867,3.593,3.5969,3.6015,3.6065,3.6096,3.6154,3.6226,3.6236,3.6312,3.6366,3.6457,3.6493,3.6554,3.6541,3.6564,3.657,3.6576,3.658,3.6436,3.6567,3.6567,3.6566,3.6566,3.6566,0,3.5887,3.5919,3.5978,3.6046,3.6097,3.6091,3.6145,3.6189,3.6255,3.6304,3.636,3.6442,3.651,3.6553,3.6622,3.6663,3.6666,3.6681,3.6679,3.6687,3.6588,3.6567,3.6678,3.6678,3.6678,3.6678,3.6678,3.6678,3.5955,3.6036,3.6053,3.6156,3.6188,3.6262,3.6294,3.6337,3.6376,3.6468,3.6524,3.6551,3.6598,3.6671,3.6734,3.6745,3.6771,3.6788,3.6799,3.6705,3.6694,3.6683,3.6664,3.6793,3.6793,3.6893,3.6894,3.6894]},{"header":{"parameterUnit":"m.s-1","parameterCategory":1,"la1":30.2991,"la2":30.254,"lo1":-89.0895,"lo2":-89.0444,"dy":0.0017,"dx":0.0017,"nx":28,"ny":28,"refTime":"2024-06-05T09:00:00:Z","depth":0,"parameterNumber":3,"parameterNumberName":"V-component_of_WINDS"},"data":[0,0,0,0,0,0,0,0,0,0,0,0,0,0,0,0,0,0,0,0,0,0,0,0,0,0,0,0,0,0,0,0,0,0,0,0,0,0,0,0,0,0,0,0,0,0,0,0,0,0,0,0,0,0,0,0,0,0,1.34,1.3401,0,1.3483,1.3484,1.3485,1.3512,1.3512,1.3511,1.3511,1.3594,1.3597,1.3599,0,0,0,0,0,0,0,0,0,0,0,0,0,1.3259,1.3261,1.34,1.3401,1.3402,1.3483,1.3484,1.3486,1.3512,1.3512,1.3511,1.3511,1.3593,1.3596,1.36,0,0,0,0,0,0,0,0,0,0,0,0,0,1.3329,1.3262,1.34,1.3425,1.3428,1.3483,1.3485,1.3486,1.3512,1.3512,1.3511,1.3511,1.3592,1.3596,1.36,1.3635,0,0,1.3612,1.3613,0,0,0,0,0,0,0,0,1.3325,1.3334,1.342,1.3423,1.3427,1.3487,1.3465,1.3536,1.3512,1.348,1.3511,1.351,1.3559,1.3565,1.3582,1.3639,1.3642,1.3612,1.3614,1.3616,1.3617,0,0,0,0,0,0,0,1.332,1.3331,1.3433,1.3421,1.3426,1.3431,1.344,1.3479,1.3522,1.3483,1.3485,1.3495,1.356,1.3578,1.3584,1.3644,1.3612,1.3615,1.3618,1.3619,1.373,1.373,0,0,0,0,0,0,1.3311,1.3326,1.343,1.3435,1.3374,1.3434,1.3444,1.3468,1.3521,1.3529,1.3495,1.3496,1.3572,1.358,1.3587,1.363,1.3616,1.362,1.3622,1.3729,1.373,1.373,0,0,0,0,0,0,1.3308,1.332,1.3427,1.3381,1.3395,1.3437,1.3463,1.347,1.3488,1.3531,1.3538,1.3506,1.3572,1.3582,1.3622,1.3633,1.3621,1.3625,1.3728,1.3729,1.373,1.3716,0,0,0,0,0,0,1.3304,1.3319,1.3334,1.3382,1.3398,1.3462,1.3464,1.3472,1.3495,1.3496,1.3543,1.355,1.3572,1.3616,1.3626,1.3638,1.3628,1.3727,1.3729,1.373,1.3716,1.3717,1.3717,0,0,0,0,0,1.3299,1.3327,1.3335,1.3347,1.3418,1.3462,1.3472,1.3498,1.3496,1.351,1.3537,1.3548,1.363,1.362,1.3632,1.3645,1.3727,1.3728,1.373,1.3716,1.3717,1.3717,0,0,0,0,0,0,1.328,1.3334,1.3343,1.3388,1.342,1.3467,1.3486,1.3498,1.3532,1.3532,1.3562,1.3572,1.3609,1.3631,1.3619,1.368,1.3679,1.3683,1.3665,1.3666,1.3666,1.366,1.3631,0,0,0,0,0,1.3281,1.3314,1.3359,1.3394,1.341,1.3445,1.3466,1.3483,1.3517,1.3531,1.3561,1.3593,1.3626,1.3647,1.368,1.3719,1.3728,1.3734,1.3734,1.3734,1.3737,1.3757,1.3759,1.3735,1.3735,1.3735,0,0,1.3283,1.3317,1.3336,1.3391,1.3418,1.345,1.3456,1.3491,1.3514,1.3536,1.3576,1.3598,1.3636,1.3675,1.3694,1.3695,1.3746,1.3736,1.3736,1.3739,1.3759,1.3761,1.3763,1.3736,1.3736,1.3736,0,0,1.3304,1.3333,1.3365,1.3391,1.3432,1.3455,1.3462,1.3507,1.3522,1.3563,1.3579,1.3606,1.3663,1.3689,1.3709,1.3735,1.3746,1.3745,1.3748,1.3767,1.3769,1.3771,1.3779,1.3781,1.3748,1.3748,1.3748,0,1.3302,1.3352,1.3379,1.3412,1.3434,1.3455,1.3486,1.351,1.3559,1.3573,1.3573,1.3643,1.367,1.3714,1.372,1.3737,1.3744,1.374,1.3767,1.3769,1.3771,1.3779,1.3782,1.3747,1.3747,1.3747,1.3747,0,1.3345,1.3379,1.3399,1.3446,1.3471,1.3502,1.3533,1.3554,1.3568,1.359,1.3629,1.3662,1.37,1.3712,1.3727,1.3758,1.3756,1.3761,1.3761,1.3772,1.378,1.3783,1.3746,1.3747,1.3747,1.3747,0,0,1.3358,1.3418,1.3424,1.3445,1.349,1.3516,1.3547,1.3585,1.3602,1.3634,1.366,1.3705,1.3709,1.3732,1.3749,1.3766,1.3782,1.3768,1.377,1.3769,1.3816,1.3812,1.3815,1.3789,1.379,1.3791,1.3812,0,1.3383,1.3441,1.3465,1.3511,1.3541,1.356,1.3586,1.3616,1.3636,1.3664,1.3686,1.3718,1.3722,1.3735,1.3752,1.3777,1.3792,1.3775,1.3812,1.3813,1.3802,1.3819,1.3816,1.3835,1.3816,1.3816,1.3817,0,1.3421,1.3453,1.3502,1.3541,1.3555,1.3578,1.3613,1.364,1.3673,1.3686,1.3711,1.3726,1.3757,1.3754,1.3796,1.3784,1.38,1.3814,1.3815,1.3819,1.3815,1.3823,1.3842,1.3844,1.3822,1.3822,1.3821,0,1.3423,1.3478,1.3514,1.3531,1.3578,1.3594,1.3614,1.3647,1.3667,1.3697,1.371,1.3743,1.3761,1.3786,1.3809,1.3805,1.3848,1.3847,1.3858,1.3858,1.3867,1.3866,1.3888,1.3878,1.3878,1.3878,1.3878,0,1.3448,1.3477,1.3515,1.3537,1.3569,1.3595,1.3625,1.3647,1.3675,1.37,1.3718,1.374,1.377,1.3796,1.3814,1.3845,1.3853,1.3863,1.3868,1.3862,1.386,1.3873,1.3872,1.3879,1.3878,1.3878,1.3878,0,1.3456,1.3483,1.3523,1.3564,1.3575,1.3596,1.363,1.3651,1.3672,1.3703,1.3711,1.3744,1.3775,1.38,1.3841,1.3853,1.3884,1.389,1.3874,1.3876,1.3885,1.3884,1.3915,1.392,1.3908,1.3908,1.3908,0,1.347,1.3493,1.3535,1.3554,1.3573,1.3603,1.3623,1.3649,1.3669,1.3707,1.3723,1.3755,1.3782,1.3831,1.3857,1.3887,1.3893,1.3902,1.3898,1.389,1.3892,1.389,1.3892,1.3902,1.3902,1.3902,1.3902,0,1.3492,1.3503,1.3533,1.3567,1.359,1.3618,1.3646,1.3659,1.369,1.3711,1.3744,1.3765,1.3805,1.3837,1.3869,1.3888,1.39,1.3903,1.3907,1.3901,1.389,1.3895,1.3874,1.3902,1.3902,1.3902,1.3902,1.3902,1.3502,1.3522,1.3555,1.3586,1.361,1.3635,1.3656,1.3679,1.3706,1.3742,1.3755,1.3788,1.3817,1.3862,1.3881,1.3906,1.3907,1.3913,1.3915,1.3916,1.3914,1.3886,1.3912,1.3912,1.3912,1.3912,1.3912,0,1.3524,1.3545,1.3574,1.3612,1.3636,1.3645,1.3675,1.3695,1.3723,1.375,1.3776,1.3812,1.3842,1.3869,1.39,1.3914,1.392,1.3921,1.392,1.3924,1.3912,1.3905,1.3916,1.3916,1.3916,1.3916,1.3916,1.3916,1.3537,1.3571,1.3586,1.363,1.3652,1.3684,1.37,1.3723,1.3744,1.3783,1.3808,1.3826,1.3853,1.3885,1.3912,1.3919,1.3929,1.3929,1.3937,1.3926,1.3925,1.3924,1.3918,1.3931,1.3931,1.3947,1.3947,1.3947]}]]